Index of /blog/posts/veraltet

[ICO]NameLast modifiedSizeDescription

[PARENTDIR]Parent Directory  -  
[TXT]2007-07-11-mysql-auf-osx-installieren.html2024-02-21 18:24 23K 
[TXT]2007-07-11-php-aktivieren.html2024-02-21 18:24 22K 
[TXT]2007-07-14-poster-powerpoint.html2024-02-21 18:24 22K 
[TXT]2007-07-16-favicoico.html2024-02-21 18:24 23K 
[TXT]2007-07-16-php-session.html2024-02-21 18:24 23K 
[TXT]2007-08-19-google-suche.html2024-02-21 18:24 22K 
[TXT]2007-08-23-rapidshare.html2024-02-21 18:24 25K 
[TXT]2007-09-13-mp3-dateien-zusammenfugen.html2024-02-21 18:24 23K 
[TXT]2007-09-23-foto-mosaik-unter-osx-erstellen.html2024-02-21 18:24 23K 
[TXT]2007-10-21-farben-umkehren.html2024-02-21 18:24 22K 
[TXT]2007-10-26-festplattenwechsel-am-emac.html2024-02-21 18:24 24K 
[TXT]2007-10-26-tastenkombinationen-osx.html2024-02-21 18:24 23K 
[TXT]2007-11-06-datenschutz-per-tor.html2024-02-21 18:24 23K 
[TXT]2007-11-10-latex.html2024-02-21 18:24 25K 
[TXT]2007-12-06-c64-online-emulation.html2024-02-21 18:24 22K 
[TXT]2007-12-15-achtung-betruger.html2024-02-21 18:24 22K 
[TXT]2007-12-15-ftp-per-cyberduck.html2024-02-21 18:24 22K 
[TXT]2007-12-28-kein-bild-mehr-an-der-playstation-3.html2024-02-21 18:24 23K 
[TXT]2008-01-21-mac-werbeverarschung.html2024-02-21 18:24 22K 
[TXT]2008-01-27-neuer-spot-du-bist-deutschland.html2024-02-21 18:24 22K 
[TXT]2008-01-27-nieder-mit-it.html2024-02-21 18:24 22K 
[TXT]2008-01-28-verbindungsgeschwindigkeit.html2024-02-21 18:24 22K 
[TXT]2008-02-01-babykonfiguration.html2024-02-21 18:24 23K 
[TXT]2008-02-11-endnote-x1-und-office-2008-nicht-kompatibel.html2024-02-21 18:24 22K 
[TXT]2008-02-11-neutrino.html2024-02-21 18:24 22K 
[TXT]2008-02-17-ialertu-diebstahlsicherung-fur-das-macbook-pro.html2024-02-21 18:24 23K 
[TXT]2008-02-21-addicted-to-mac.html2024-02-21 18:24 22K 
[TXT]2008-02-22-113.html2024-02-21 18:24 25K 
[TXT]2008-02-22-caldav-einrichten.html2024-02-21 18:24 22K 
[TXT]2008-02-29-osx-installationspartition-erstellen.html2024-02-21 18:24 23K 
[TXT]2008-03-01-leopard-auf-g4-rechnern.html2024-02-21 18:24 23K 
[TXT]2008-03-05-audacity-mit-lame.html2024-02-21 18:24 23K 
[TXT]2008-03-10-xgrid-auch-ohne-osx-server.html2024-02-21 18:24 22K 
[TXT]2008-03-22-cue-dateien-brennen.html2024-02-21 18:24 22K 
[TXT]2008-03-22-rar-unter-osx.html2024-02-21 18:24 22K 
[TXT]2008-03-23-audiospur-aus-vob-dateien-extrahieren.html2024-02-21 18:24 23K 
[TXT]2008-03-25-macpro-bootet-nicht-mehr.html2024-02-21 18:24 24K 
[TXT]2008-03-26-harald-leschs-video-podcast.html2024-02-21 18:24 22K 
[TXT]2008-03-29-ical-synct-nicht-mehr-daten-sind-nicht-konsistent.html2024-02-21 18:24 24K 
[TXT]2008-04-04-wma-nach-mp3.html2024-02-21 18:24 23K 
[TXT]2008-04-05-desinstaller.html2024-02-21 18:24 22K 
[TXT]2008-04-05-timemachine.html2024-02-21 18:24 24K 
[TXT]2008-04-11-stickywindows.html2024-02-21 18:24 22K 
[TXT]2008-04-12-mp3-streams-speichern.html2024-02-21 18:24 22K 
[TXT]2008-04-24-mit-perian-quicktime-pimpen.html2024-02-21 18:24 22K 
[TXT]2008-04-24-netzwerkverbindung-zeigt-den-userordner-nimmer-an.html2024-02-21 18:24 23K 
[TXT]2008-04-26-macbook-an-tv-anschliesen.html2024-02-21 18:24 23K 
[TXT]2008-04-28-systempflege.html2024-02-21 18:24 23K 
[TXT]2008-04-30-widgets.html2024-02-21 18:24 22K 
[TXT]2008-05-01-ogg-in-itunes-abspielen.html2024-02-21 18:24 22K 
[TXT]2008-05-10-axbo-schlafphasenwecker.html2024-02-21 18:24 22K 
[TXT]2008-05-23-not-amused.html2024-02-21 18:24 22K 
[TXT]2008-05-28-software-update-per-terminal.html2024-02-21 18:24 22K 
[TXT]2008-05-30-openstreetmap.html2024-02-21 18:24 26K 
[TXT]2008-06-22-josm-trotz-proxy-benutzen.html2024-02-21 18:24 22K 
[TXT]2008-07-01-eddie-izzard.html2024-02-21 18:24 22K 
[TXT]2008-07-10-word-2008-the-custom-dictionary-custom-dictionary-is-not-available.html2024-02-21 18:24 23K 
[TXT]2008-07-21-biomedcentral-steht-zum-verkauf.html2024-02-21 18:24 23K 
[TXT]2008-09-11-genius-webcam-funktioniert-nicht-unter-osx-104.html2024-02-21 18:24 25K 
[TXT]2008-09-16-ps3-update-uber-datentrager.html2024-02-21 18:24 23K 
[TXT]2008-09-18-rapidshare-uploader-fur-osx.html2024-02-21 18:24 22K 
[TXT]2008-09-27-datenrettung-per-photorec.html2024-02-21 18:24 22K 
[TXT]2008-09-27-dmg-erstellen.html2024-02-21 18:24 22K 
[TXT]2008-09-27-gui-fur-launchd.html2024-02-21 18:24 22K 
[TXT]2008-09-29-e-mail-zertifizieren-mit-thawte.html2024-02-21 18:24 26K 
[TXT]2008-09-29-funkbrucke-mit-longshine-lcs-wa5-45.html2024-02-21 18:24 24K 
[TXT]2008-09-29-zertifikate-mit-firefox-exportieren.html2024-02-21 18:24 24K 
[TXT]2008-09-30-tiger-komplett-update.html2024-02-21 18:24 22K 
[TXT]2008-10-03-applescript.html2024-02-21 18:24 22K 
[TXT]2008-12-02-zauberwurfel.html2024-02-21 18:24 22K 
[TXT]2009-01-30-anzahl-der-zeichen-innerhalb-eines-feld-begrenzen.html2024-02-21 18:24 22K 
[TXT]2009-02-13-latex-texshop-laufe-spezifizieren.html2024-02-21 18:24 25K 
[TXT]2009-03-18-lotus-notes-installieren.html2024-02-21 18:24 23K 
[TXT]2009-04-08-wordpress-auf-dem-iphone-und-ipod-touch.html2024-02-21 18:24 22K 
[TXT]2009-04-11-xvid-auf-der-ps3-abspielen.html2024-02-21 18:24 25K 
[TXT]2009-04-16-meine-macs.html2024-02-21 18:24 22K 
[TXT]2009-04-17-rar-unter-osx-installieren.html2024-02-21 18:24 23K 
[TXT]2009-04-18-meine-ip-liste.html2024-02-21 18:24 23K 
[TXT]2009-04-22-r-unter-ubuntu-installieren.html2024-02-21 18:24 24K 
[TXT]2009-04-23-per-vnc-auf-ubuntu-zugreifen.html2024-02-21 18:24 35K 
[TXT]2009-04-24-vnc-zeigt-nach-update-nur-die-hintergrundfarbe.html2024-02-21 18:24 24K 
[TXT]2009-05-03-ubuntu-auf-asus-eeepc-901-go-installieren.html2024-02-21 18:24 31K 
[TXT]2009-05-07-ubuntu-nachinstallieren.html2024-02-21 18:24 26K 
[TXT]2009-05-09-ubuntu-auf-einem-macpro-installieren.html2024-02-21 18:24 27K 
[TXT]2009-05-13-freenx-auf-ubuntu-904-installieren.html2024-02-21 18:24 26K 
[TXT]2009-05-16-externe-isight-in-ubuntu-aktivieren.html2024-02-21 18:24 24K 
[TXT]2009-06-08-supakids-zentrum-fur-kinder-kranker-eltern-offnet-im-juli-in-hamburg.html2024-02-21 18:24 25K 
[TXT]2009-06-12-apples-lexikon-pimpen.html2024-02-21 18:24 24K 
[TXT]2009-06-19-zensursula-zensiert-zuruck.html2024-02-21 18:24 23K 
[TXT]2009-06-24-ubunutu-9-04-fahrt-nur-noch-im-low-graphics-mode-hoch.html2024-02-21 18:24 29K 
[TXT]2009-06-25-freie-dns-server.html2024-02-21 18:24 22K 
[TXT]2009-06-25-video-anleitungen.html2024-02-21 18:24 22K 
[TXT]2009-06-30-webmin-unter-osx-installieren.html2024-02-21 18:24 27K 
[TXT]2009-07-07-openbook-von-markus-fischer-ist-online.html2024-02-21 18:24 22K 
[TXT]2009-07-08-cdr-nach-iso-konvertieren.html2024-02-21 18:24 22K 
[TXT]2009-07-13-ubuntu-9-04-jaunty-auf-einem-macbookpro-installieren.html2024-02-21 18:24 33K 
[TXT]2009-07-15-per-vlc-auf-die-dbox2-streamen.html2024-02-21 18:24 28K 
[TXT]2009-07-16-latexlaufe-unter-kile-spezifizieren.html2024-02-21 18:24 25K 
[TXT]2009-07-19-download-und-notizen.html2024-02-21 18:24 22K 
[TXT]2009-07-19-umstieg-von-osx-auf-ubuntu.html2024-02-21 18:24 26K 
[TXT]2009-07-25-daten-unter-ubuntu-pcs-synchronisieren.html2024-02-21 18:24 27K 
[TXT]2009-08-06-mp3-dateien-zusammenfuhren-unter-ubuntu.html2024-02-21 18:24 25K 
[TXT]2009-08-18-user-nummer-495-170.html2024-02-21 18:24 22K 
[TXT]2009-08-29-von-ubuntu-auf-die-playstation-3-streamen.html2024-02-21 18:24 23K 
[TXT]2009-09-01-ts-nach-xvid-konvertieren-unter-ubuntu.html2024-02-21 18:24 25K 
[TXT]2009-09-09-iso-nach-dmg-konvertieren.html2024-02-21 18:24 22K 
[TXT]2009-09-10-einen-ubuntu-live-usb-stick-fur-apples-intel-mac-erstellen.html2024-02-21 18:24 30K 
[TXT]2009-09-13-update-auf-leopard-schlagt-fehl.html2024-02-21 18:24 23K 
[TXT]2009-09-18-lightning-add-on-fur-64bit.html2024-02-21 18:24 22K 
[TXT]2009-10-02-openpgp-in-thunderbird-scheitert-an-unbekanntem-fehler.html2024-02-21 18:24 24K 
[TXT]2009-10-03-von-jaunty-auf-karmic-updaten.html2024-02-21 18:24 24K 
[TXT]2009-10-09-offener-brief-an.html2024-02-21 18:24 23K 
[TXT]2009-10-13-752.html2024-02-21 18:24 23K 
[TXT]2009-10-14-bootproblemchen-teil2.html2024-02-21 18:24 23K 
[TXT]2009-10-16-wordpress-artikelreihenfolge-in-kategorien-umkehren.html2024-02-21 18:24 23K 
[TXT]2009-10-22-wir-in-nepal-in-neuem-design.html2024-02-21 18:24 23K 
[TXT]2009-10-24-putty.html2024-02-21 18:24 22K 
[TXT]2009-10-25-moodle-auf-einem-strato-server-installieren.html2024-02-21 18:24 25K 
[TXT]2009-10-27-von-handbrake-zu-ogmrip.html2024-02-21 18:24 22K 
[TXT]2009-10-27-zusatzpakete-unter-karmic.html2024-02-21 18:24 23K 
[TXT]2009-11-01-youtube-flash-filme-mit-ubuntu-ppc-ansehen.html2024-02-21 18:24 23K 
[TXT]2009-11-04-passwort-fur-standardschlusselbund-andern.html2024-02-21 18:24 23K 
[TXT]2009-11-05-jaunty-hat-doch-noch-vorteile.html2024-02-21 18:24 23K 
[TXT]2009-11-06-nicht-in-deutschland-kopiergeschutzte-dvds-klonen.html2024-02-21 18:24 23K 
[TXT]2009-11-07-rapidshare-upload-script-fur-ubuntu.html2024-02-21 18:24 23K 
[TXT]2009-11-09-mit-mencoder-einzelne-dvd-kapitel-rippen-und-zusammenfuhren.html2024-02-21 18:24 24K 
[TXT]2009-11-10-meine-kleine-mencoder-fibel.html2024-02-21 18:24 34K 
[TXT]2009-11-14-avidemux2_cli-ohne-ruckfragen.html2024-02-21 18:24 23K 
[TXT]2009-11-16-meine-kleine-handbrake_cli-fiebel.html2024-02-21 18:24 29K 
[TXT]2009-11-23-einen-screencast-mit-ffmpeg-aufnehmen-bild-und-ton.html2024-02-21 18:24 24K 
[TXT]2009-12-02-latex-fehler-tex-capacity-exceeded.html2024-02-21 18:24 23K 
[TXT]2009-12-05-dreambox-7020si-bootet-nicht-mehr.html2024-02-21 18:24 23K 
[TXT]2009-12-06-script-meldet-binbash-bad-interpreter-permission-denied.html2024-02-21 18:24 22K 
[TXT]2009-12-06-ts-aufnahmen-einer-dbox2-auf-einer-dreambox-abspielen.html2024-02-21 18:24 23K 
[TXT]2009-12-07-moodle-loscht-inaktive-user-automatisch.html2024-02-21 18:24 23K 
[TXT]2009-12-14-tolkienfonts-fur-latex-installieren.html2024-02-21 18:24 26K 
[TXT]2009-12-17-fanboys.html2024-02-21 18:24 22K 
[TXT]2009-12-29-benjammin-spring.html2024-02-21 18:24 22K 
[TXT]2010-01-05-img-images-nach-iso-konvertieren-unter-ubuntu.html2024-02-21 18:24 23K 
[TXT]2010-01-07-firmware-aktualisierung-am-asus-oplay-hdp-r1.html2024-02-21 18:24 24K 
[TXT]2010-01-15-littlesnitch-pendant-fur-ubuntu-das-war-schon.html2024-02-21 18:24 25K 
[TXT]2010-01-20-jabber-4-all.html2024-02-21 18:24 23K 
[TXT]2010-01-24-eine-kleine-servergeschichte.html2024-02-21 18:24 35K 
[TXT]2010-01-24-headless-server-hatte-uber-vnc-nur-eine-auflosung-von-800x600.html2024-02-21 18:24 23K 
[TXT]2010-01-24-ifupdown-eth0-loswerden.html2024-02-21 18:24 23K 
[TXT]2010-01-30-suspend-unterbinden-wenn-musik-spielt.html2024-02-21 18:24 26K 
[TXT]2010-02-02-gnome-power-cmd-ist-tot-lang-lebe-dbus-send.html2024-02-21 18:24 25K 
[TXT]2010-02-02-suspend-unterbinden-wenn-musik-spielt-alternative.html2024-02-21 18:24 27K 
[TXT]2010-02-08-internetradio-mittels-icecast2-und-ices2-senden-dirty-alsa-hack.html2024-02-21 18:24 42K 
[TXT]2010-02-11-mehrere-kalender-per-syncevolution-und-funambol-synchronisieren.html2024-02-21 18:24 38K 
[TXT]2010-03-01-gnumed-installieren.html2024-02-21 18:24 22K 
[TXT]2010-03-05-spiele-unter-ubuntu.html2024-02-21 18:24 24K 
[TXT]2010-03-12-was-mach-ich-womit-unter-ubuntu.html2024-02-21 18:24 27K 
[TXT]2010-03-14-no_pubkey-beheben.html2024-02-21 18:24 23K 
[TXT]2010-03-16-o2-surfstick-zte-mit-ubuntu-9-10-nutzen.html2024-02-21 18:24 30K 
[TXT]2010-03-19-songbird-sucht-zu-lange.html2024-02-21 18:24 23K 
[TXT]2010-03-21-blogtk-blog-editor.html2024-02-21 18:24 23K 
[TXT]2010-03-23-erfahrungen-mit-extremaudio-de.html2024-02-21 18:24 28K 
[TXT]2010-03-23-usb-stick-zur-mp3-wiedergabe-am-autoradio.html2024-02-21 18:24 24K 
[TXT]2010-03-29-handbrakecli-meldet-no-valid-source-found.html2024-02-21 18:24 24K 
[TXT]2010-04-02-im-screen-scrollen.html2024-02-21 18:24 22K 
[TXT]2010-04-05-tonspur-aus-videodatei-extrahieren.html2024-02-21 18:24 24K 
[TXT]2010-04-20-film-fur-powerpoint-umwandeln-ubuntu.html2024-02-21 18:24 24K 
[TXT]2010-04-25-neuinstallation-von-lucid-lynx-auf-einem-macbookpro.html2024-02-21 18:24 30K 
[TXT]2010-04-26-unterhaltung-am-wochenende-automatisch-aufnehmen.html2024-02-21 18:24 25K 
[TXT]2010-04-26-winmail-dat-anhange-in-evolution-offnen-tnef.html2024-02-21 18:24 26K 
[TXT]2010-04-29-gnome-icons-einschalten.html2024-02-21 18:24 22K 
[TXT]2010-04-30-indicator-applet-verschwunden-lucid.html2024-02-21 18:24 23K 
[TXT]2010-05-06-devicekit-power-ist-tot-lang-lebe-upower.html2024-02-21 18:24 25K 
[TXT]2010-05-12-python-schnipsel.html2024-02-21 18:24 27K 
[TXT]2010-05-15-eigenes-theme-bringt-problem-mit-wordpress-com-stats.html2024-02-21 18:24 23K 
[TXT]2010-05-15-ein-script-nach-resume-ausfuhren.html2024-02-21 18:24 23K 
[TXT]2010-05-26-half-life-mit-wine-spielen.html2024-02-21 18:24 24K 
[TXT]2010-05-28-neorouter-unter-ubuntu-lucid-lynx-installieren.html2024-02-21 18:24 30K 
[TXT]2010-06-05-treiber-fur-asrock-board-win-xp.html2024-02-21 18:24 23K 
[TXT]2010-06-14-wm-2010-im-stream-sehen.html2024-02-21 18:24 23K 
[TXT]2010-06-16-mario-vs-pacman.html2024-02-21 18:24 22K 
[TXT]2010-06-18-fataler-fehler-nach-update-auf-wordpress-3-0.html2024-02-21 18:24 22K 
[TXT]2010-06-30-mehrseitiges-pdf-in-einzelne-tiffs-extrahieren.html2024-02-21 18:24 23K 
[TXT]2010-08-16-rotes-licht-an-der-audioklinke-des-macbook.html2024-02-21 18:24 22K 
[TXT]2010-09-22-lufter-des-macbookpro-lauft-laut-drohnend-auf-volle-pulle.html2024-02-21 18:24 24K 
[TXT]2010-09-27-nutzliche-kommandos-auf-der-shell.html2024-02-21 18:24 22K 
[TXT]2010-09-28-lesezeichen-in-ein-pdf-dokument-einfugen.html2024-02-21 18:24 22K 
[TXT]2010-11-12-zusatzpakete.html2024-02-21 18:24 23K 
[TXT]2010-11-22-mit-unrar-alle-rar-dateien-in-einem-verzeichnis-entpacken.html2024-02-21 18:24 24K 
[TXT]2010-12-08-musiksammlung-mit-vbrfix-fixen.html2024-02-21 18:24 24K 
[TXT]2011-01-07-tangocolors-fur-latex.html2024-02-21 18:24 33K 
[TXT]2011-01-08-pid-von-einem-python-script-abfragen.html2024-02-21 18:24 24K 
[TXT]2011-01-10-mpd-mit-unterstutzung-fur-lame-bauen.html2024-02-21 18:24 26K 
[TXT]2011-01-12-shoutcast-und-icecast-auf-dem-oplay-abspielen.html2024-02-21 18:24 27K 
[TXT]2011-01-13-dateiendung-einem-programm-zuweisen.html2024-02-21 18:24 24K 
[TXT]2011-04-07-zufrieden-logitech-wireless-presenter-r400-unter-linux.html2024-02-21 18:24 22K 
[TXT]2011-04-23-freeqda-ein-freies-tool-fur-qualitative-sozialforscher.html2024-02-21 18:24 26K 
[TXT]2011-04-29-swap-leeren.html2024-02-21 18:24 23K 
[TXT]2011-06-08-win7-freischalten-produktaktivierung.html2024-02-21 18:24 24K 
[TXT]2011-08-15-google-einladung.html2024-02-21 18:24 22K 
[TXT]2011-09-06-alternative-zu-cheese-guvcview.html2024-02-21 18:24 23K 
[TXT]2011-09-06-oplay-meldet-frame-zu-gros.html2024-02-21 18:24 23K 
[TXT]2011-09-07-dampflinks.html2024-02-21 18:24 23K 
[TXT]2011-09-08-ratsel-zum-mischverhaltnis.html2024-02-21 18:24 22K 
[TXT]2011-09-10-tonspur-aus-mkv-datei-extrahieren.html2024-02-21 18:24 22K 
[TXT]2011-10-12-audex-sturzt-ab.html2024-02-21 18:24 22K 
[TXT]2011-10-12-liste-der-manuell-installierten-pakete-mit-deborphan-anzeigen.html2024-02-21 18:24 23K 
[TXT]2011-10-19-mehrere-google-kalender-mit-kontact-synchronisieren.html2024-02-21 18:24 25K 
[TXT]2012-02-14-thinkpad-w520-an-einer-docking-station-3-betreiben.html2024-02-21 18:24 27K 
[TXT]2012-03-26-amazon-kindle-per-winetricks-installieren.html2024-02-21 18:24 22K 
[TXT]2012-06-04-owncloud-zum-syncen-von-kalender-und-kontaktdaten.html2024-02-21 18:24 31K 
[TXT]2012-06-14-screencast-app-kazam.html2024-02-21 18:24 23K 
[TXT]2012-06-27-the-personal-analytics-of-my-life-mein-mailverkehr.html2024-02-21 18:24 29K 
[TXT]2012-06-28-the-personal-analytics-of-my-life-meine-termine.html2024-02-21 18:24 30K 
[TXT]2012-07-01-test.html2024-02-21 18:24 22K 
[TXT]2012-07-02-unzip-meldet-need-pk-compat-v5-1-can-do-v4-6.html2024-02-21 18:24 22K 
[TXT]2012-07-07-blaue-gesichter-in-youtube-videos.html2024-02-21 18:24 22K 
[TXT]2012-07-14-unity-tastenkombinationen.html2024-02-21 18:24 22K 
[TXT]2012-07-25-unity-einrichten.html2024-02-21 18:24 28K 
[TXT]2012-08-10-clients-im-netzwerk-finden.html2024-02-21 18:24 23K 
[TXT]2012-08-16-qnap-ts-219p-mittels-nfs-unter-ubuntu-einbinden.html2024-02-21 18:24 24K 
[TXT]2012-08-21-worpress-editor-hat-weisse-schrift-auf-weisem-grund.html2024-02-21 18:24 22K 
[TXT]2012-08-30-lasmex-s-01.html2024-02-21 18:24 25K 
[TXT]2012-09-11-famile-forschungskolleg.html2024-02-21 18:24 22K 
[TXT]2012-09-12-freenx-und-unity.html2024-02-21 18:24 23K 
[TXT]2012-10-03-notiz-mendeley-citation-style-selber-machen.html2024-02-21 18:24 24K 
[TXT]2012-10-23-daniel-suarez-daemon-und-darknet.html2024-02-21 18:24 23K 
[TXT]2012-10-28-calibre-plugin-speichert-anderungen-in-epubs.html2024-02-21 18:24 22K 
[TXT]2012-11-05-doppelte-dateien-unter-ubuntu-aufspuhren-fslint.html2024-02-21 18:24 22K 
[TXT]2012-11-10-notifications-von-programmen-sind-nicht-sichtbar.html2024-02-21 18:24 23K 
[TXT]2012-11-12-retroshare.html2024-02-21 18:24 27K 
[TXT]2012-12-05-acrobat-9-3-pro-unter-ubuntu-installieren.html2024-02-21 18:24 24K 
[TXT]2013-02-06-latex-pdftex-error-font-expansion-invalid-font-identifier-begindocument.html2024-02-21 18:24 22K 
[TXT]2013-02-13-flacon.html2024-02-21 18:24 22K 
[TXT]2013-02-14-libreoffice.html2024-02-21 18:24 22K 
[TXT]2013-02-18-ubuntu-for-tablets.html2024-02-21 18:24 22K 
[TXT]2013-02-22-mysql-dump.html2024-02-21 18:24 22K 
[TXT]2013-02-22-ubuntu-gastaccount-deaktivieren.html2024-02-21 18:24 22K 
[TXT]2013-03-03-ubuntu-64bit-steam-mag-kein-flash.html2024-02-21 18:24 23K 
[TXT]2013-03-05-torbooks.html2024-02-21 18:24 22K 
[TXT]2013-03-18-pdf-dateien-zusammenfuhren.html2024-02-21 18:24 22K 
[TXT]2013-03-19-coverart-fur-rhythmbox.html2024-02-21 18:24 23K 
[TXT]2013-03-20-gnu-r-paket-coin-unter-ubuntu-installieren.html2024-02-21 18:24 22K 
[TXT]2013-04-10-playonlinux-giana-sisters-twisted-dreams.html2024-02-21 18:24 24K 
[TXT]2013-04-22-keycode-von-sondertasten-herausfinden.html2024-02-21 18:24 22K 
[TXT]2013-04-25-ubuntu-auf-einem-lenovo-ideapad-s205-wlan-probleme.html2024-02-21 18:24 23K 
[TXT]2013-04-26-pdf-dokumente-beschneiden-mit-briss.html2024-02-21 18:24 22K 
[TXT]2013-05-05-wget-mit-tor-bundle-nutzen.html2024-02-21 18:24 24K 
[TXT]2013-05-22-ich-mache-xy-mit-ubuntu.html2024-02-21 18:24 25K 
[TXT]2013-05-22-xbmc-box-login-per-ssh.html2024-02-21 18:24 22K 
[TXT]2013-05-23-pakete-nachinstallieren.html2024-02-21 18:24 25K 
[TXT]2013-05-23-ssh-publik-keys-vergeben.html2024-02-21 18:24 24K 
[TXT]2013-05-23-ssh-rechner-namen-vergeben.html2024-02-21 18:24 23K 
[TXT]2013-05-23-ssh-ssh-agent.html2024-02-21 18:24 22K 
[TXT]2013-05-23-wakeonlan.html2024-02-21 18:24 24K 
[TXT]2013-05-24-haufigkeiten-von-factor-levels-fur-gruppen-plotten.html2024-02-21 18:24 32K 
[TXT]2013-05-27-dateien-mit-rar-packen.html2024-02-21 18:24 23K 
[TXT]2013-05-27-xbmc-remove-userdata-to-msd.html2024-02-21 18:24 23K 
[TXT]2013-05-31-acoustid-fingerprinter-in-ubuntu-12-04-precise.html2024-02-21 18:24 22K 
[TXT]2013-06-09-mkv-dateien-splitten.html2024-02-21 18:24 22K 
[TXT]2013-06-09-windows-administrator-account-aktivieren.html2024-02-21 18:24 23K 
[TXT]2013-06-13-zwei-verzeichnisse-mittels-rsync-zusammenfuhren-merge.html2024-02-21 18:24 23K 
[TXT]2013-06-16-wine-soundprobleme-unter-ubuntu-12-04-64bit-gelost.html2024-02-21 18:24 22K 
[TXT]2013-06-26-fix-specto-meldet.html2024-02-21 18:24 24K 
[TXT]2013-07-05-thunderbird-links-in-mails-offnen.html2024-02-21 18:24 23K 
[TXT]2013-08-21-mediawiki-und-john-the-ripper.html2024-02-21 18:24 22K 
[TXT]2013-09-11-ssh-connection-aufrecht-erhalten.html2024-02-21 18:24 23K 
[TXT]2013-09-24-powerpoint-folien-animation-rauscht-durch.html2024-02-21 18:24 22K 
[TXT]2013-10-14-video-in-flash-umwandeln.html2024-02-21 18:24 22K 
[TXT]2013-11-08-fix-ubuntu.html2024-02-21 18:24 22K 
[TXT]2013-11-26-gimp.html2024-02-21 18:24 23K 
[TXT]2013-11-26-xbmc-ueber-die-kommandozeile-steuern.html2024-02-21 18:24 24K 
[TXT]2013-11-29-flac-datei-mittels-cue-splitten.html2024-02-21 18:24 23K 
[TXT]2014-01-11-bash-history.html2024-02-21 18:24 22K 
[TXT]2014-01-11-notiz-rsync-fuer-backups.html2024-02-21 18:24 24K 
[TXT]2014-01-19-entferntes-verzeichnis-ueber-ssh-lokal-mounten.html2024-02-21 18:24 23K 
[TXT]2014-02-03-die-eigene-ip-herausbekommen.html2024-02-21 18:24 23K 
[TXT]2014-02-13-mp3-dateien-reparieren-mit-mp3val.html2024-02-21 18:24 23K 
[TXT]2014-02-28-notiz-git-befehle.html2024-02-21 18:24 24K 
[TXT]2014-03-02-apache-php-fehlermeldungen-ausgeben.html2024-02-21 18:24 22K 
[TXT]2014-03-31-arch-linux-notizen.html2024-02-21 18:24 27K 
[TXT]2014-04-14-arch-multimedia-keys-in-xfce4.html2024-02-21 18:24 24K 
[TXT]2014-04-15-arch-multiload-fuers-xfce4-panel.html2024-02-21 18:24 22K 
[TXT]2014-04-15-xfcegnome-oeffnen-orte-mit-anjuta.html2024-02-21 18:24 23K 
[TXT]2014-04-18-notiz-office-2007-mit-wine-installieren.html2024-02-21 18:24 22K 
[TXT]2014-04-19-arch-img-in-iso-umwandeln.html2024-02-21 18:24 22K 
[TXT]2014-05-27-mythtv-mythtv-database-no-database-selected.html2024-02-21 18:24 26K 
[TXT]2014-09-24-internet-radiostationen.html2024-02-21 18:24 24K 
[TXT]2014-10-03-ubuntu-boot-repair.html2024-02-21 18:24 22K 
[TXT]2014-10-20-gthumb-bilder-nach-exif-datum-umbenennen.html2024-02-21 18:24 22K 
[TXT]2015-03-11-cairo-dock-hat-unter-xfce4-12-einen-schatten.html2024-02-21 18:24 22K 
[TXT]2015-03-16-mediawiki-alle-seiten-einer-kategorie-plus-unterkategorien-als-pdf-exportieren.html2024-02-21 18:24 31K 
[TXT]2015-04-01-kile-sweave-werkzeug-erstellen.html2024-02-21 18:24 28K 
[TXT]2015-07-27-mythtv-streamingdownload-probleme-via-mythweb.html2024-02-21 18:24 23K 
[TXT]2015-09-03-wetek-openelec-box.html2024-02-21 18:24 25K 
[TXT]2016-03-29-emulationstation-unter-archlinux.html2024-02-21 18:24 36K 
[TXT]2016-07-06-mediawiki-alle-seiten-einer-kategorie-als-pdf-exortieren-mit-python.html2024-02-21 18:24 24K 
[TXT]2017-01-26-fatal-error-cannot-use-this-as-parameter-in-varlibmythtvmythwebincludesutils-php.html2024-02-21 18:24 23K 
[TXT]2018-06-29-ipv6-im-congstar-mobilnetz.html2024-02-21 18:24 23K 
[TXT]2018-08-29-subsonic-ist-tot-es-leben-airsonic.html2024-02-21 18:24 25K 
[TXT]2018-09-08-xfce-autostart-verzoegern.html2024-02-21 18:24 23K 
[TXT]2019-01-27-login-bei-mediawiki-mit-python.html2024-02-21 18:24 36K 
[DIR]2021-04-11-neustart/2024-02-21 18:24 -  
[DIR]2021-04-13-theme-even-anpassen/2024-02-21 18:24 -  
[DIR]2021-05-17-actionbound-schalker-regenbogenschule-ralley/2024-02-21 18:24 -  
[DIR]2022-03-13-atom-editor/2024-02-21 18:24 -  

Apache/2.4.25 (Debian) Server at www.produnis.de Port 80